| time (UTC) | temp C | wind direction | speed KPH | gust KPH | rain 1hr cm | rain 24hr cm | rain mn cm | humidity % | barometer mb |
| 20260503021154 | 3 | 217 | 1.6 | 4.8 | 0.00 | 0.00 | 0.00 | 86 | 1019.4 |
| 20260503020154 | 2 | 221 | 1.6 | 3.2 | 0.00 | 0.00 | 0.00 | 86 | 1019.4 |
| 20260503015147 | 3 | 214 | 0.0 | 1.6 | 0.00 | 0.00 | 0.00 | 85 | 1019.4 |
| 20260503014140 | 3 | 215 | 0.0 | 1.6 | 0.00 | 0.00 | 0.00 | 85 | 1019.5 |
| 20260503013134 | 3 | 216 | 0.0 | 1.6 | 0.00 | 0.00 | 0.00 | 83 | 1019.4 |
| 20260503012127 | 3 | 229 | 1.6 | 4.8 | 0.00 | 0.00 | 0.00 | 82 | 1019.3 |
| 20260503011119 | 5 | 229 | 3.2 | 4.8 | 0.00 | 0.00 | 0.00 | 81 | 1019.5 |
| 20260503010113 | 3 | 219 | 1.6 | 4.8 | 0.00 | 0.00 | 0.00 | 86 | 1019.5 |
| 20260503005105 | 3 | 213 | 0.0 | 1.6 | 0.00 | 0.00 | 0.00 | 83 | 1019.6 |
| 20260503004058 | 4 | 221 | 1.6 | 3.2 | 0.00 | 0.00 | 0.00 | 82 | 1019.6 |
| 20260503003050 | 3 | 216 | 1.6 | 3.2 | 0.00 | 0.00 | 0.00 | 84 | 1019.7 |
| 20260503002042 | 3 | 212 | 0.0 | 1.6 | 0.00 | 0.00 | 0.00 | 82 | 1019.8 |
| 20260503001035 | 4 | 213 | 0.0 | 1.6 | 0.00 | 0.00 | 0.00 | 82 | 1019.9 |
| 20260503000027 | 4 | 212 | 0.0 | 0.0 | 0.00 | 0.00 | 0.00 | 83 | 1019.8 |
| 20260502235020 | 4 | 212 | 0.0 | 3.2 | 0.00 | 0.00 | 0.00 | 81 | 1019.9 |
| 20260502234015 | 5 | 230 | 1.6 | 4.8 | 0.00 | 0.00 | 0.00 | 82 | 1020.0 |
| 20260502233007 | 5 | 216 | 0.0 | 0.0 | 0.00 | 0.00 | 0.00 | 81 | 1020.1 |
| 20260502232000 | 5 | 210 | 0.0 | 3.2 | 0.00 | 0.00 | 0.00 | 81 | 1020.1 |
| 20260502230953 | 5 | 212 | 0.0 | 3.2 | 0.00 | 0.00 | 0.00 | 81 | 1020.1 |
| 20260502225944 | 5 | 214 | 0.0 | 3.2 | 0.00 | 0.00 | 0.00 | 80 | 1020.3 |
| 20260502224937 | 5 | 217 | 0.0 | 1.6 | 0.00 | 0.00 | 0.00 | 80 | 1020.1 |
| 20260502223930 | 5 | 212 | 0.0 | 0.0 | 0.00 | 0.00 | 0.00 | 80 | 1020.1 |
| 20260502222923 | 5 | 207 | 0.0 | 0.0 | 0.00 | 0.00 | 0.00 | 77 | 1020.1 |
| 20260502221916 | 5 | 211 | 0.0 | 0.0 | 0.00 | 0.00 | 0.00 | 77 | 1020.3 |
| 20260502220907 | 5 | 211 | 0.0 | 0.0 | 0.00 | 0.00 | 0.00 | 77 | 1020.1 |
| 20260502215900 | 6 | 214 | 0.0 | 0.0 | 0.00 | 0.00 | 0.00 | 77 | 1020.3 |
| 20260502214854 | 5 | 214 | 0.0 | 0.0 | 0.00 | 0.00 | 0.00 | 77 | 1020.3 |
| 20260502213847 | 6 | 211 | 0.0 | 0.0 | 0.00 | 0.00 | 0.00 | 75 | 1020.4 |
| 20260502212840 | 6 | 214 | 0.0 | 0.0 | 0.00 | 0.00 | 0.00 | 75 | 1020.3 |
| 20260502211832 | 6 | 218 | 0.0 | 0.0 | 0.00 | 0.00 | 0.00 | 73 | 1020.3 |
| 20260502210825 | 6 | 209 | 0.0 | 0.0 | 0.00 | 0.00 | 0.00 | 74 | 1020.6 |
| 20260502205818 | 7 | 213 | 0.0 | 0.0 | 0.00 | 0.00 | 0.00 | 72 | 1020.5 |
| 20260502204809 | 7 | 213 | 0.0 | 0.0 | 0.00 | 0.00 | 0.00 | 71 | 1020.7 |
| 20260502203802 | 7 | 209 | 0.0 | 0.0 | 0.00 | 0.00 | 0.00 | 72 | 1020.5 |
| 20260502202755 | 7 | 212 | 0.0 | 1.6 | 0.00 | 0.00 | 0.00 | 71 | 1020.7 |
| 20260502201747 | 7 | 219 | 1.6 | 1.6 | 0.00 | 0.00 | 0.00 | 71 | 1020.7 |
| 20260502200740 | 7 | 207 | 0.0 | 1.6 | 0.00 | 0.00 | 0.00 | 70 | 1020.7 |
| 20260502195734 | 8 | 213 | 0.0 | 1.6 | 0.00 | 0.00 | 0.00 | 68 | 1020.7 |
| 20260502194727 | 8 | 212 | 0.0 | 1.6 | 0.00 | 0.00 | 0.00 | 67 | 1020.8 |
| 20260502193720 | 10 | 213 | 0.0 | 1.6 | 0.00 | 0.00 | 0.00 | 65 | 1020.9 |
| 20260502192712 | 9 | 219 | 1.6 | 3.2 | 0.00 | 0.00 | 0.00 | 65 | 1021.0 |
| 20260502191705 | 10 | 211 | 1.6 | 3.2 | 0.00 | 0.00 | 0.00 | 62 | 1021.0 |
| 20260502190656 | 10 | 231 | 1.6 | 3.2 | 0.00 | 0.00 | 0.00 | 63 | 1020.8 |
| 20260502185650 | 11 | 239 | 3.2 | 3.2 | 0.00 | 0.00 | 0.00 | 60 | 1020.6 |
| 20260502184643 | 11 | 237 | 3.2 | 4.8 | 0.00 | 0.00 | 0.00 | 61 | 1020.8 |
| 20260502183636 | 12 | 232 | 3.2 | 3.2 | 0.00 | 0.00 | 0.00 | 60 | 1020.7 |
| 20260502182628 | 12 | 232 | 1.6 | 3.2 | 0.00 | 0.00 | 0.00 | 58 | 1020.7 |
| 20260502181621 | 12 | 224 | 1.6 | 3.2 | 0.00 | 0.00 | 0.00 | 58 | 1020.5 |
| 20260502180615 | 13 | 225 | 1.6 | 3.2 | 0.00 | 0.00 | 0.00 | 55 | 1020.4 |
| 20260502163509 | 23 | 234 | 1.6 | 3.2 | 0.00 | 0.00 | 0.00 | 26 | 1020.7 |
| 20260502162503 | 23 | 171 | 0.0 | 3.2 | 0.00 | 0.00 | 0.00 | 26 | 1020.7 |
| 20260502161456 | 23 | 120 | 1.6 | 6.4 | 0.00 | 0.00 | 0.00 | 25 | 1020.9 |
| 20260502160448 | 23 | 255 | 3.2 | 11.3 | 0.00 | 0.00 | 0.00 | 25 | 1021.0 |
| 20260502151412 | 25 | 227 | 4.8 | 12.9 | 0.00 | 0.00 | 0.00 | 24 | 1021.7 |
| 20260502150404 | 25 | 231 | 4.8 | 11.3 | 0.00 | 0.00 | 0.00 | 25 | 1021.6 |
| 20260502130239 | 25 | 214 | 3.2 | 9.7 | 0.00 | 0.00 | 0.00 | 26 | 1022.8 |
| 20260502123224 | 25 | 195 | 3.2 | 9.7 | 0.00 | 0.00 | 0.00 | 26 | 1023.1 |
| 20260502122219 | 23 | 183 | 3.2 | 9.7 | 0.00 | 0.00 | 0.00 | 26 | 1023.5 |
| 20260502121211 | 24 | 204 | 3.2 | 9.7 | 0.00 | 0.00 | 0.00 | 26 | 1023.6 |
| 20260502120203 | 23 | 137 | 3.2 | 9.7 | 0.00 | 0.00 | 0.00 | 27 | 1023.6 |
| 20260502115156 | 23 | 201 | 3.2 | 9.7 | 0.00 | 0.00 | 0.00 | 26 | 1023.8 |
| 20260502114149 | 23 | 206 | 3.2 | 11.3 | 0.00 | 0.00 | 0.00 | 28 | 1023.8 |
| 20260502113143 | 23 | 249 | 3.2 | 9.7 | 0.00 | 0.00 | 0.00 | 28 | 1024.0 |
| 20260502112136 | 23 | 222 | 1.6 | 6.4 | 0.00 | 0.00 | 0.00 | 28 | 1024.1 |
| 20260502111127 | 22 | 231 | 4.8 | 12.9 | 0.00 | 0.00 | 0.00 | 28 | 1024.2 |
| 20260502110120 | 23 | 212 | 4.8 | 11.3 | 0.00 | 0.00 | 0.00 | 28 | 1024.5 |
| 20260502105113 | 23 | 170 | 3.2 | 9.7 | 0.00 | 0.00 | 0.00 | 30 | 1024.5 |
| 20260502104105 | 23 | 233 | 3.2 | 12.9 | 0.00 | 0.00 | 0.00 | 30 | 1024.7 |
| 20260502103059 | 23 | 238 | 4.8 | 11.3 | 0.00 | 0.00 | 0.00 | 30 | 1024.8 |
| 20260502102052 | 22 | 223 | 3.2 | 11.3 | 0.00 | 0.00 | 0.00 | 32 | 1024.8 |
| 20260502101043 | 22 | 157 | 3.2 | 11.3 | 0.00 | 0.00 | 0.00 | 31 | 1024.9 |
| 20260502091010 | 21 | 249 | 3.2 | 9.7 | 0.00 | 0.00 | 0.00 | 35 | 1025.7 |
| 20260502070843 | 17 | 208 | 1.6 | 4.8 | 0.00 | 0.00 | 0.00 | 47 | 1026.4 |
| 20260502065835 | 16 | 169 | 1.6 | 4.8 | 0.00 | 0.00 | 0.00 | 47 | 1026.4 |
| 20260502064828 | 15 | 188 | 1.6 | 6.4 | 0.00 | 0.00 | 0.00 | 48 | 1026.6 |
| 20260502063821 | 15 | 164 | 0.0 | 3.2 | 0.00 | 0.00 | 0.00 | 53 | 1026.6 |
| 20260502062813 | 15 | 186 | 0.0 | 3.2 | 0.00 | 0.00 | 0.00 | 52 | 1026.6 |
| 20260502061806 | 15 | 204 | 0.0 | 0.0 | 0.00 | 0.00 | 0.00 | 55 | 1026.8 |
| 20260502060800 | 13 | 236 | 0.0 | 0.0 | 0.00 | 0.00 | 0.00 | 58 | 1026.7 |
| 20260502055753 | 13 | 205 | 0.0 | 0.0 | 0.00 | 0.00 | 0.00 | 58 | 1026.8 |
| 20260502054745 | 12 | 197 | 0.0 | 0.0 | 0.00 | 0.00 | 0.00 | 61 | 1026.7 |
| 20260502053738 | 12 | 186 | 0.0 | 0.0 | 0.00 | 0.00 | 0.00 | 61 | 1026.9 |
| 20260502052731 | 11 | 196 | 0.0 | 0.0 | 0.00 | 0.00 | 0.00 | 66 | 1026.8 |
| 20260502051723 | 8 | 199 | 0.0 | 0.0 | 0.00 | 0.00 | 0.00 | 74 | 1026.7 |
| 20260502050716 | 7 | 200 | 0.0 | 0.0 | 0.00 | 0.00 | 0.00 | 75 | 1027.0 |
| 20260502045708 | 7 | 183 | 0.0 | 0.0 | 0.00 | 0.00 | 0.00 | 74 | 1026.7 |
| 20260502044701 | 6 | 140 | 0.0 | 0.0 | 0.00 | 0.00 | 0.00 | 77 | 1026.7 |
| 20260502043654 | 5 | 156 | 0.0 | 0.0 | 0.00 | 0.00 | 0.00 | 84 | 1026.8 |
| 20260502042648 | 3 | 170 | 0.0 | 0.0 | 0.00 | 0.00 | 0.00 | 89 | 1026.9 |
| 20260502041640 | 2 | 207 | 0.0 | 0.0 | 0.00 | 0.00 | 0.00 | 89 | 1026.7 |
| 20260502040633 | 2 | 208 | 0.0 | 0.0 | 0.00 | 0.00 | 0.00 | 89 | 1026.4 |
| 20260502035625 | 2 | 210 | 0.0 | 0.0 | 0.00 | 0.00 | 0.00 | 89 | 1026.5 |
| 20260502034618 | 2 | 192 | 0.0 | 0.0 | 0.00 | 0.00 | 0.00 | 88 | 1026.6 |
| 20260502033611 | 2 | 199 | 0.0 | 0.0 | 0.00 | 0.00 | 0.00 | 89 | 1026.4 |
| 20260502032604 | 2 | 213 | 0.0 | 0.0 | 0.00 | 0.00 | 0.00 | 88 | 1026.4 |
| 20260502031557 | 2 | 214 | 0.0 | 0.0 | 0.00 | 0.00 | 0.00 | 88 | 1026.5 |
| 20260502030548 | 2 | 209 | 0.0 | 0.0 | 0.00 | 0.00 | 0.00 | 88 | 1026.6 |
| 20260502025541 | 2 | 211 | 0.0 | 0.0 | 0.00 | 0.00 | 0.00 | 86 | 1026.4 |
| 20260502024534 | 2 | 214 | 0.0 | 0.0 | 0.00 | 0.00 | 0.00 | 87 | 1026.4 |
| 20260502023528 | 3 | 210 | 0.0 | 1.6 | 0.00 | 0.00 | 0.00 | 86 | 1026.5 |
| 20260502022521 | 2 | 214 | 0.0 | 1.6 | 0.00 | 0.00 | 0.00 | 86 | 1026.4 |